Regional Weather Roundup
Issued by NWS

Home | Current Version | Previous Version | Graphics & Text | Print | Product List | Glossary On
Versions: 1 2 3 4 5 6 7 8 9 10 11 12 13 14 15 16 17 18 19 20 21 22 23 24 25 26 27 28 29 30 31 32 33 34 35 36 37 38 39 40 41 42 43 44 45 46 47 48 49 50
000
ASUS45 KBOU 301707
RWRCO

WEATHER ROUNDUP FOR COLORADO
NATIONAL WEATHER SERVICE DENVER/BOULDER CO
1100 AM MDT SUN AUG 30 2015

NOTE: "FAIR" INDICATES FEW OR NO CLOUDS BELOW 12000 FEET WITH NO
SIGNIFICANT WEATHER AND/OR OBSTRUCTIONS TO VISIBILITY.

COZ001>005-013-030-031-301800-
...NORTHWEST COLORADO...

CITY           SKY/WX    TMP DP  RH WIND       PRES   REMARKS
CRAIG          SUNNY     82  41  23 VRB3      30.19S
HAYDEN         NOT AVBL
MEEKER         MOSUNNY   81  40  23 CALM      30.21S
MOUNT WERNER   NOT AVBL
STEAMBOAT SPGS SUNNY     73  44  35 CALM      30.24F
WALDEN         MOSUNNY   73  34  23 S10       30.33S
$$

COZ006>008-011-301800-
...WEST CENTRAL VALLEYS...

CITY           SKY/WX    TMP DP  RH WIND       PRES   REMARKS
GRAND JUNCTION MOSUNNY   80  44  27 SE8       30.11F
MONTROSE       SUNNY     78  48  34 N8        30.22S
EAGLE          MOSUNNY   70  37  30 CALM      30.29F
RIFLE          MOSUNNY   75  42  30 NW3       30.19S
DELTA          SUNNY     81  45  28 E3        30.18F
NUCLA          SUNNY     81  41  24 SW3       30.26F
$$

COZ017>023-064>068-301800-
...SOUTHWEST COLORADO...

CITY           SKY/WX    TMP DP  RH WIND       PRES   REMARKS
DURANGO        MOSUNNY   76  45  33 MISG      30.32F
CORTEZ         MOSUNNY   76  47  35 W3        30.25S
PAGOSA SPRINGS MOSUNNY   71  40  32 W3        30.40F
TELLURIDE      LGT RAIN  65  45  47 CALM      30.48S
WOLF CREEK PAS SUNNY     54  43  66 SW7       30.72R
$$

COZ009-010-012-014-032>034-037-058>063-301800-
...CENTRAL COLORADO...

CITY           SKY/WX    TMP DP  RH WIND       PRES   REMARKS
ASPEN          MOSUNNY   77  39  25 N6        30.33F
BUENA VISTA    SUNNY     70  38  31 CALM      30.38S
COPPER MTN     MOSUNNY   59  30  33 W18G29    30.68S
BERTHOUD PASS  FAIR      52  37  58 NW18G37   30.71R
COTTONWOOD PAS NOT AVBL
GUNNISON       SUNNY     66  39  37 NW3       30.41F
KREMMLING      SUNNY     70  36  28 CALM      30.34F
LEADVILLE      PTSUNNY   67  31  26 VRB3      30.50S
SALIDA         SUNNY     75  42  30 CALM      30.40F
SUNLIGHT       SUNNY     66  43  42 CALM      30.60R
WILKERSON PASS SUNNY     61  32  33 W5        30.64S
$$

COZ069>075-301800-
...SAN LUIS VALLEY/SANGRE DE CRISTO MOUNTAINS...

CITY           SKY/WX    TMP DP  RH WIND       PRES   REMARKS
ALAMOSA        SUNNY     71  44  37 VRB3      30.38F
LA VETA PASS   SUNNY     64  41  42 SW5       30.56R
SAGUACHE       NOT AVBL
$$

COZ035-036-038>040-301800-
...NORTHERN COLORADO FRONT RANGE...

CITY           SKY/WX    TMP DP  RH WIND       PRES   REMARKS
DENVER INTL AP PTSUNNY   88  36  15 VRB5      30.12S
DMNS CITY PARK   N/A     88  40  18 E3G12     30.11S
AURORA         NOT AVBL
FRONT RANGE AP PTSUNNY   88  34  14 CALM      30.14S
ERIE MUNI ARPT SUNNY     86  43  21 SE3       30.09F
BOULDER MUN AP SUNNY     84  45  24 SE6       30.09F
CENTENNIAL     PTSUNNY   85  35  16 SW7       30.16S
BROOMFIELD     MOSUNNY   86  43  22 E3        30.14S
FORT COLLINS   SUNNY     81  52  36 S8        30.08F
LONGMONT       SUNNY     85  47  26 SE3       30.10S
$$

COZ041-046-047-076>085-087-088-301800-
...PIKES PEAK/PALMER DIVIDE AND SOUTHERN FOOTHILLS...

CITY           SKY/WX    TMP DP  RH WIND       PRES   REMARKS
COLO. SPRINGS  MOSUNNY   80  44  27 S6        30.22S
A. F. ACADEMY  SUNNY     84  32  15 SW14      30.22S
ELLICOTT       NOT AVBL
FALCON         SUNNY     82  33  17 MISG      30.27S
FORT CARSON    NOT AVBL
LIMON          SUNNY     80  50  34 SE13      30.16S
MONUMENT HILL  SUNNY     82  30  15 W6        30.27S
TRINIDAD       SUNNY     83  43  24 VRB3      30.19F HAZE
$$

COZ042>045-048>051-090-091-301800-
...NORTHEAST COLORADO...

CITY           SKY/WX    TMP DP  RH WIND       PRES   REMARKS
GREELEY ARPT   SUNNY     81  48  32 S9        30.08F
AKRON          SUNNY     87  48  25 SW16      30.08S
BURLINGTON     SUNNY     83  50  31 S16G25    30.11S
WRAY           SUNNY     91  44  20 S17G25    30.04S
STERLING       SUNNY     84  50  30 SW14      30.02S
HOLYOKE        SUNNY     86  48  26 S16G23    30.03F
FORT MORGAN    SUNNY     81  46  29 S6        30.07F
$$

COZ086-089-092>099-301800-
...SOUTHEAST COLORADO...

CITY           SKY/WX    TMP DP  RH WIND       PRES   REMARKS
PUEBLO         SUNNY     80  47  31 VRB3      30.11F
LA JUNTA       SUNNY     85  51  31 S6        30.09F
LAMAR          NOT AVBL
SPRINGFIELD    NOT AVBL
$$



USA.gov is the U.S. government's official web portal to all federal, state and local government web resources and services.